Regional Weather Roundup
Issued by NWS Cleveland, OH

Home | Current Version | Previous Version | Graphics & Text | Print | Product List | Glossary On
Versions: 1 2 3 4 5 6 7 8 9 10 11 12 13 14 15 16 17 18 19 20 21 22 23 24 25 26 27 28 29 30 31 32 33 34 35 36 37 38 39 40 41 42 43 44 45 46 47 48 49 50
000
ASUS41 KCLE 162300
RWRCLE
OHIO REGIONAL WEATHER ROUNDUP
NATIONAL WEATHER SERVICE WILMINGTON, OH
700 PM EDT WED APR 16 2014

NOTE: "FAIR" INDICATES FEW OR NO CLOUDS BELOW 12,000 FEET WITH NO
SIGNIFICANT WEATHER AND/OR OBSTRUCTIONS TO VISIBILITY.

OHZ001>008-015>018-024>027-034-035-043-044-170000-
   NORTHWEST OHIO

CITY           SKY/WX    TMP DP  RH WIND       PRES   REMARKS
DEFIANCE       MOSUNNY   46  25  43 E12       30.32F
FINDLAY        SUNNY     46  25  43 SE13      30.32F
TOLEDO EXPRESS SUNNY     43  23  45 SE8       30.34F
TOLEDO METCALF SUNNY     40  26  57 E13G21    30.37S
LIMA           SUNNY     47  25  42 E12       30.30F
$$

OHZ009>014-019>023-028>033-038-089-170000-
   NORTHEAST OHIO

CITY           SKY/WX    TMP DP  RH WIND       PRES   REMARKS
CLE-HOPKINS    MOSUNNY   41  26  55 N12       30.41S
CLE-LAKEFRONT  SUNNY     39  30  70 N15       30.38F
CUY CO. ARPT   MOSUNNY   43  18  36 SE9       30.39F
LORAIN-ELYRIA  SUNNY     42  26  53 NE14      30.38S
ASHTABULA      SUNNY     38  20  48 NE7       30.42S
AKRON-CANTON   MOSUNNY   42  14  32 S9        30.37F
WOOSTER        NOT AVBL
MANSFIELD      SUNNY     42  21  43 E13       30.34S
YOUNGSTOWN     MOSUNNY   42  17  36 SE9       30.39S
$$

OHZ042-051>053-060>062-070>072-077>081-170000-
  SOUTHWEST OHIO

CITY           SKY/WX    TMP DP  RH WIND       PRES   REMARKS
CINC-COVINGTON PTSUNNY   50  20  30 SE15      30.25F
CINC-LUNKEN    SUNNY     50  22  33 E8        30.28F
HAMILTON       MOSUNNY   51  22  31 E15G22    30.28F
DAYTON         NOT AVBL
WRIGHT-PAT AFB MOSUNNY   47  21  34 SE12      30.29F
DAYTON GENERAL MOSUNNY   48  22  35 SE10      30.27F
WILMINGTON     SUNNY     47  20  34 SE12      30.28F
$$

OHZ036-037-039>041-045>050-054>059-063>069-073>076-082>088-170000-
  CENTRAL AND SOUTHEAST OHIO

CITY           SKY/WX    TMP DP  RH WIND       PRES   REMARKS
COLUMBUS       PTSUNNY   49  20  31 SE14      30.33F
OSU AIRPORT    SUNNY     46  21  37 SE10      30.32F
BOLTON FIELD   NOT AVBL
RICKENBACK AFB NOT AVBL
NEWARK         SUNNY     47  19  33 E12       30.34S
MARION         SUNNY     45  22  40 SE8       30.33S
LANCASTER      SUNNY     47  20  34 E13       30.33S
ZANESVILLE     SUNNY     46  19  34 E8        30.36S
NEW PHILLY     SUNNY     45  17  32 SE10      30.38F
$$



USA.gov is the U.S. government's official web portal to all federal, state and local government web resources and services.